Regional Weather Roundup
Issued by NWS Grand Forks, ND

Home | Current Version | Previous Version | Text Only | Print | Product List | Glossary Off
Versions: 1 2 3 4 5 6 7 8 9 10 11 12 13 14 15 16 17 18 19 20 21 22 23 24 25 26 27 28 29 30 31 32 33 34 35 36 37 38 39 40 41 42 43 44 45 46 47 48 49 50

000
ASUS43 KFGF 301910
RWRFGF
PRAIRIE TO PINES  WEATHER ROUNDUP
NATIONAL WEATHER SERVICE EASTERN NORTH DAKOTA/GRAND FORKS ND
200 PM CDT SUN AUG 30 2015

 **SATELLITE DATA USED TO AUGMENT SKY COVER AT AUTOMATED STATIONS**
 *****  WEATHER ACROSS EASTERN NORTH DAKOTA  *****

CITY           SKY/WX    TMP DP  RH WIND       PRES   REMARKS
GRAND FORKS    PTSUNNY   84  68  58 S17G24    29.71F
GRAND FRKS AFB MOSUNNY   84  69  61 S18       29.71F
GRAND FRKS NWS   N/A     81 N/A N/A S14         N/A
DEVILS LAKE    MOSUNNY   88  66  48 SE16      29.67F HX  90
FARGO          SUNNY     85  66  53 S16G23    29.77F
WAHPETON ARPT  CLEAR     82  63  51 S15       29.82S
$$

 ***** WEATHER ACROSS CENTRAL AND WESTERN NORTH DAKOTA  *****

CITY           SKY/WX    TMP DP  RH WIND       PRES   REMARKS
BISMARCK       CLOUDY    91  59  33 S13       29.68F HX  90
MINOT          MOSUNNY   91  54  28 S10G21    29.61F
JAMESTOWN      SUNNY     84  66  54 S17G24    29.73F
MINOT AFB      MOSUNNY   94  55  26 SW10G16   29.60S HX  92
GARRISON         N/A     90  58  33 S12       29.65F
WILLISTON      PTSUNNY   85  53  33 NW8       29.74R HAZE
DICKINSON      CLOUDY    88  47  24 W17G24    29.72
HETTINGER      CLOUDY    94  46  19 W17G23    29.74R HX  90
$$

 *****  OTHER AIRPORT OBSERVATIONS IN OUR AREA  *****

CITY           SKY/WX    TMP DP  RH WIND       PRES   REMARKS
WALHALLA       FAIR      84  73  70 MISG      29.67F HX  91
GRAFTON AIRPOR FAIR      82  70  65 S16       29.71F
VALLEY CITY AR FAIR      84  68  58 S14G22    29.75F
CANDO          NOT AVBL
CAVALIER APRT  FAIR      81  68  65 S10G20    29.68F
GWINNER        FAIR      84  66  54 S14G20    29.79F
SHEYENNE NWR     N/A     87  65  48 S12       29.95S
ROLLA            N/A     91  57  31 S16G22    29.67F HX  90
 ***** THE ABOVE OBSERVATIONS ARE NON NWS ARE NOT QUALITY
       CONTROLLED AND MAY MIS-REPORT RAIN FOR SNOW...
$$

  *****  WEATHER ACROSS NORTHERN MINNESOTA  *****

CITY           SKY/WX    TMP DP  RH WIND       PRES   REMARKS
FLAG ISLAND    MOSUNNY   72  66  83 S10       29.76F
WARROAD        MOSUNNY   82  73  74 S6        29.77F
ROSEAU         MOSUNNY   84  73  70 S10       29.75F HX  91
HALLOCK        MOSUNNY   82  70  65 S20       29.70F
THF RVR FALLS  SUNNY    N/A N/A N/A S15       29.76F
BAUDETTE       SUNNY     82  68  62 S12       29.79F
WASKISH        MOSUNNY   79  70  73 SE7       29.82F
CROOKSTON      MOSUNNY   82  66  57 S18       29.75F
STEPHEN NDAWN    N/A     82  70  65 S15         N/A
GREENBUSH NDAW   N/A     84  68  58 S10         N/A
$$
  *****  WEATHER ACROSS CENTRAL AND WEST MINNESOTA  *****

CITY           SKY/WX    TMP DP  RH WIND       PRES   REMARKS
FOSSTON        SUNNY     84  64  51 S14       29.80F
BEMIDJI        MOSUNNY   80  67  63 S10       29.84F
PARK RAPIDS    SUNNY     82  66  58 S13       29.86F
ELBOW LAKE     FAIR      78  68  71 S13       29.86S
WADENA         SUNNY     79  66  65 S12       29.87F
DETROIT LAKES  SUNNY     81  66  61 S13       29.84F
MOORHEAD       SUNNY     82  66  57 S17       29.79F
FERGUS FALLS   MOSUNNY   81  66  61 S14       29.83F
MORRIS MN      SUNNY     79  68  69 S16       29.87S
STAPLES        SUNNY     79  64  61 S12       29.89S
$$
  *****  WEATHER ELSEWHERE ACROSS MINNESOTA  *****

CITY           SKY/WX    TMP DP  RH WIND       PRES   REMARKS
DULUTH         SUNNY     78  65  63 SW10      29.91F
INTRNTL FALLS  MOSUNNY   79  68  69 VRB6      29.82F
ELY            SUNNY     81  64  57 W6        29.88F
CLOQUET        SUNNY     77  63  61 S12       29.91F
WHEATON        SUNNY     79  66  65 S14       29.85S
BRAINERD       SUNNY     76  65  68 S10       29.90F
HIBBING        SUNNY     80  66  62 VRB6      29.88F
ALEXANDRIA     SUNNY     79  66  64 S13       29.90F
SAINT CLOUD    SUNNY     77  65  66 S14       29.93F
MINNEAPOLIS    MOSUNNY   77  62  59 S9        29.97F
$$

  *****  WEATHER ACROSS SOUTH DAKOTA  *****

CITY           SKY/WX    TMP DP  RH WIND       PRES   REMARKS
SIOUX FALLS    SUNNY     74  64  71 S12       29.96F
BROOKINGS      MOSUNNY   75  66  73 S13       29.94F
WATERTOWN      SUNNY     79  66  64 S14       29.89S
HURON          SUNNY     82  67  60 S13G21    29.84F
SISSETON         N/A     88  67  49 S13       29.81F HX  91
ABERDEEN       SUNNY     83  68  60 S17       29.80F
MITCHELL       SUNNY     83  69  62 S17       29.88F
PIERRE         MOSUNNY   97  52  21 S20G25    29.74F HAZE    HX  94
MOBRIDGE       PTSUNNY   89  65  44 SE12      29.69F HX  91
RAPID CITY     SUNNY     94  60  32 VRB7      29.79F HX  94
$$

  *****  SOME WEATHER IN NEARBY STATES *****

CITY           SKY/WX    TMP DP  RH WIND       PRES   REMARKS
GLASGOW MT     PTSUNNY   73  56  54 N12       29.77F
GREAT FALLS MT PTSUNNY   77  43  29 SW13G26   29.81F HAZE
CHEYENNE WY    SUNNY     90  34  13 W10G23    30.10F
SCOTTSBLUFF NE SUNNY     89  55  31 E12       29.93F
OMAHA NE       CLOUDY    72  64  76 S10       30.04F
DES MOINES IA  CLOUDY    75  65  70 S3        30.05F
DAVENPORT IA   MOSUNNY   76  65  68 CALM      30.07F
CHICAGO IL     PTSUNNY   73  63  70 N5        30.06F
EAU CLAIRE WI  SUNNY     75  64  68 S13       30.00F
LA CROSSE WI   CLOUDY    73  64  73 S10       30.04F
$$

  *****  SOME NATIONAL WEATHER *****

CITY           SKY/WX    TMP DP  RH WIND       PRES   REMARKS
LA GUARDIA NY  PTSUNNY   89  65  44 S13       30.03F HX  91
RALEIGH NC     CLOUDY    85  58  39 SE3       30.13F
ATLANTA GA     PTSUNNY   74  64  71 E13       30.11F
NEW ORLEANS LA MOSUNNY   90  65  43 N6        30.04F HX  92
OKLAHOMA CITY  MOSUNNY   86  64  47 VRB3      30.00F
ALBUQUERQUE NM MOSUNNY   84  48  28 W8        30.21F
SALT LAKE CITY PTSUNNY   82  48  30 NW13G22   29.98F
LOS ANGELES CA MOSUNNY   79  68  69 W13       29.91S
BOISE ID       SUNNY     75  40  28 NW3       29.99F
SEATTLE WA     LGT RAIN  62  55  77 S9        29.94R
$$

*** WEATHER ACROSS MANITOBA...SASKATCHEWAN AND ONTARIO ***
                ***ONTARIO***

CITY           SKY/WX    TMP DP  RH WIND       PRES   REMARKS
GERALDTON      PTSUNNY   72  64  78 W10       29.80S FOG
THUNDER BAY    PTSUNNY   77  66  69 NE6       29.82F
SIOUX LOOKOUT  CLOUDY    79  66  65 SW7       29.80F
TORONTO        MOSUNNY   77  63  61 SE7       30.05F
BIG TROUT LK   CLOUDY    66  57  72 N8        29.77R
PICKLE LAKE    MOSUNNY   77  61  57 NW8G21    29.76R
DRYDEN         SUNNY     79  66  65 S5        29.81F
KENORA         PTSUNNY   79  70  73 S12       29.79F
$$
                *** MANITOBA***

CITY           SKY/WX    TMP DP  RH WIND       PRES   REMARKS
BRANDON        PTSUNNY   90  68  48 SE12      29.60F HX  93
DAUPHIN        SUNNY     79  61  53 SE16G22   29.57F
ISLAND LAKE    CLOUDY    64  59  82 E7        29.79S
PILOT MOUND      N/A     95  57  28 S16         N/A  HX  94
THE PAS        CLOUDY    72  63  73 SE13G20   29.64F
THOMPSON       CLOUDY    57  48  72 E10G17    29.77F
WINNIPEG       PTSUNNY   84  72  65 SE17      29.65F
LYNN LAKE      PTSUNNY   54  48  82 MISG      29.69F
CHURCHILL      PTSUNNY   54  45  71 E15       29.94S
GILLAM         CLOUDY    54  50  87 E7        29.86S
$$
                ***SASKATCHEWAN***

CITY           SKY/WX    TMP DP  RH WIND       PRES   REMARKS
ESTEVAN        CLOUDY    81  55  41 N17       29.63S SMOKE
KINDERSLEY     MOSUNNY   75  37  25 SW24G31   29.60F
LLOYDMINSTER   MOSUNNY   72  48  43 S9        29.51F
PRINCE ALBERT  CLOUDY    68  55  64 S7        29.55F
REGINA         PTSUNNY   68  54  60 NW8       29.70S
YORKTON        MOSUNNY   73  59  60 W5G17     29.67R HAZE
N. BATTLEFORD    N/A     75  43  31 S14       29.55F
LA RONGE       PTSUNNY   75  61  60 SE10G17   29.48F
SASKATOON      CLOUDY    73  46  38 SW17G25   29.62S
SWIFT CURRENT  SUNNY     72  46  40 SW17      29.71F
$$
NOTE: THESE ARE AUTOMATED STATIONS WITH LIMITED QUALITY CONTROL
      "FAIR" INDICATES FEW OR NO CLOUDS BELOW 12,000 FEET WITH NO
      SIGNIFICANT WEATHER AND/OR OBSTRUCTIONS TO VISIBILITY.
      SKY/WX - SKY CONDITION AND SIGNIFICANT WEATHER.
      TMP - AIR TEMPERATURE.    DP   - DEWPOINT TEMPERATURE.
      RH  - RELATIVE HUMIDITY.  PRES - PRESSURE.
      HX  - HEAT INDEX.         WCI  - WIND CHILL INDEX.
$


USA.gov is the U.S. government's official web portal to all federal, state and local government web resources and services.